Probability
0 0 0 0 0 0 0 0 0 0 0 1 1 2 2 1 0 0 0 0 0 0 0 0 0 0 0 0 0 0 0 0 0 0 0 0 0 0 0 0 0 0 0
0 0 0 0 0 0 0 0 0 1 1 3 3 4 3 1 0 0 0 0 0 0 0 0 0 0 0 0 0 0 0 0 0 0 0 0 0 0 0 0 0 0 0
0 0 0 0 0 0 0 0 0 1 2 3 4 3 2 1 0 1 0 0 0 0 0 0 0 0 0 0 0 0 0 0 0 0 0 0 0 0 0 0 0 0 0
0 0 0 0 0 0 0 0 0 1 1 1 1 1 1 0 0 0 0 0 0 0 0 0 0 0 0 0 0 0 0 0 0 0 0 0 0 0 0 0 0 0 0
0 0 0 0 0 0 0 0 0 0 0 0 0 0 0 0 0 0 0 0 0 0 0 0 0 0 0 0 0 0 0 0 0 0 0 0 0 0 0 0 0 0 0
0 0 0 0 0 0 0 0 0 0 0 0 0 0 0 0 0 0 0 0 0 0 0 0 0 0 0 0 0 0 0 0 0 0 0 0 0 0 0 0 0 0 0
0 0 1 1 0 0 0 0 0 0 0 0 0 0 0 0 0 0 0 0 0 0 0 0 0 0 0 0 0 0 0 0 0 0 0 0 0 0 0 0 0 0 0
0 0 1 1 0 0 0 0 0 0 0 0 0 0 0 0 0 0 0 0 0 0 0 0 0 0 0 0 0 0 0 0 0 0 0 0 0 0 0 0 0 0 0
0 0 1 1 0 0 0 0 0 0 0 0 0 0 0 0 0 0 0 0 0 0 0 0 0 0 0 0 0 0 0 0 0 0 0 0 0 0 0 0 0 0 0
0 0 0 0 0 0 0 0 0 0 0 0 0 0 0 0 0 0 0 0 0 0 0 0 0 0 0 0 0 0 0 0 0 0 0 0 0 0 0 0 0 0 0
0 0 0 0 0 0 0 0 0 0 0 0 0 0 0 0 0 0 1 1 0 0 0 0 0 0 0 0 0 0 0 0 0 0 0 0 0 0 1 1 1 0 1
0 0 0 0 0 0 0 0 0 0 0 0 0 0 0 0 0 0 1 1 0 0 0 0 0 0 0 0 0 0 0 0 0 0 0 0 1 1 2 3 2 1 2
0 0 0 0 0 0 0 0 0 0 0 0 0 0 0 0 0 0 1 1 0 0 0 0 0 0 0 0 0 0 0 0 0 0 0 0 2 3 4 5 4 3 4
0 0 0 0 1 1 0 0 0 0 0 0 1 1 1 1 1 0 0 1 1 0 0 0 0 0 0 0 0 0 0 0 0 0 0 1 3 5 7 8 9 8 9
0 1 1 2 4 4 2 0 0 0 0 1 3 4 3 4 3 2 1 2 1 0 0 0 0 0 0 0 0 0 0 0 0 0 1 2 5 7 9 12 14 14 14
4 4 5 7 11 13 7 2 1 1 1 3 5 7 7 9 10 9 7 5 3 2 1 0 0 0 0 0 0 0 0 0 0 0 1 2 5 6 8 10 12 13 12
22 21 19 17 21 26 20 11 6 4 4 8 12 14 16 17 21 26 25 22 18 13 8 4 1 0 0 0 0 0 0 0 0 0 0 1 2 3 4 5 6 6 6
52 53 47 39 41 47 42 30 20 16 17 21 27 31 34 36 42 51 51 46 40 30 19 11 5 2 1 0 0 0 0 0 0 0 0 0 0 0 0 1 1 2 2
78 80 77 70 69 71 67 57 47 41 41 42 44 48 53 57 62 66 62 53 45 33 22 13 7 4 2 0 0 0 0 0 0 0 0 0 0 0 0 0 0 0 0
90 92 93 92 91 90 87 81 75 69 60 52 47 46 50 54 55 53 46 36 29 23 16 10 6 3 1 0 0 0 0 0 0 0 0 0 0 0 0 0 0 0 0
91 94 97 98 99 98 96 92 86 74 55 40 31 28 29 30 30 26 21 17 14 12 10 6 3 1 0 0 0 0 0 0 0 0 0 0 0 0 0 0 0 0 0
86 90 95 99 100 98 95 88 76 55 33 19 13 10 10 11 11 9 7 6 6 6 4 3 1 0 0 0 0 0 0 0 0 0 0 0 0 0 0 0 0 0 0
76 83 91 96 97 94 88 78 60 38 19 8 3 2 2 3 3 2 2 2 2 2 1 1 0 0 0 0 0 0 0 0 0 0 0 0 0 0 0 0 0 0 0
74 81 89 93 92 88 81 69 53 35 18 7 1 0 0 0 0 0 0 0 0 0 0 0 0 0 0 0 0 0 0 0 0 0 0 0 0 0 0 0 0 0 0
83 85 86 87 86 83 74 60 45 30 16 6 1 0 0 0 0 0 0 0 0 0 0 0 0 0 0 0 0 0 0 0 0 0 0 0 0 0 0 0 0 0 0
90 87 83 81 81 78 67 53 36 22 10 3 0 0 0 0 0 0 0 0 0 0 0 0 0 0 0 0 0 0 0 0 0 0 0 0 0 0 0 0 0 0 0
Wind_Speed
13 15 17 13 11 9 9 11 14 15 15 15 15 14 14 13 12 11 11 11 12 12 12 12 12 12 11 11 10 10 10 9 9 9 9 9 9 10 10 9 7 10 11
15 17 17 12 12 11 10 11 13 14 15 15 15 14 14 13 12 12 11 11 11 12 12 12 11 11 10 10 9 9 8 8 7 7 8 10 9 8 9 6 3 10 10
16 17 18 12 12 12 11 11 13 14 15 15 14 14 13 13 12 11 11 11 11 11 11 11 10 10 9 9 8 7 7 6 5 5 7 7 10 8 7 7 8 10 9
16 16 17 15 13 13 13 13 13 14 15 14 14 13 13 12 11 11 11 10 10 10 10 10 9 9 8 7 6 6 5 4 4 6 7 5 8 10 7 8 8 9 8
15 15 17 16 13 13 13 13 14 14 14 14 13 12 12 11 10 10 10 9 9 8 8 8 8 7 7 6 5 4 2 2 4 10 3 5 6 9 7 8 8 9 8
16 16 18 16 15 13 13 13 14 14 13 13 13 12 11 10 9 9 9 8 7 7 6 7 7 6 6 5 4 3 1 1 9 7 4 4 7 9 7 8 8 9 9
15 15 19 15 14 13 13 13 12 12 12 11 11 11 10 9 8 8 7 7 6 6 5 5 6 5 5 3 3 2 2 4 9 3 5 4 8 9 6 7 7 8 9
14 15 18 16 15 15 14 13 11 11 10 10 10 10 9 8 8 7 7 6 6 5 5 5 5 5 4 3 2 3 3 7 6 4 4 5 10 6 5 4 4 6 7
14 14 16 18 17 15 13 13 12 11 10 10 9 9 9 8 8 7 7 6 6 5 5 5 5 5 4 3 2 2 3 6 9 3 3 5 8 4 3 3 2 3 4
14 13 14 16 16 16 16 15 13 12 11 11 11 11 10 9 8 7 8 7 5 5 5 5 5 4 4 3 1 1 3 8 6 4 3 8 7 3 2 2 2 2 2
13 13 13 15 15 15 15 15 14 13 11 11 12 11 10 11 11 10 8 8 6 5 4 4 4 4 4 6 3 2 6 5 4 1 3 9 5 2 2 2 2 1 1
16 15 14 14 14 14 11 12 11 11 12 11 10 12 10 7 5 6 11 7 6 5 5 5 3 6 9 6 8 8 4 2 1 2 6 7 3 2 2 3 3 2 2
17 15 15 14 13 13 9 9 8 7 8 11 10 10 7 6 6 5 6 8 8 8 8 8 8 5 3 1 1 1 1 0 1 2 8 6 4 2 2 3 3 3 3
16 17 15 15 13 12 10 8 8 7 7 8 9 10 7 5 5 5 4 5 5 5 3 4 3 3 2 3 2 1 2 0 1 2 7 7 5 3 2 2 2 3 3
16 16 16 15 14 11 9 7 8 8 7 8 7 8 7 6 6 5 4 3 4 3 5 4 3 3 3 4 2 1 1 3 2 2 6 10 8 6 4 3 1 0 1
16 16 15 15 14 13 10 8 7 8 7 7 7 8 8 6 5 5 5 4 4 3 2 3 3 3 2 2 2 2 1 2 4 3 2 8 12 10 9 7 5 4 2
16 15 15 15 15 14 13 11 8 7 7 6 6 6 7 6 5 4 4 4 3 3 3 3 4 3 3 3 3 2 2 3 3 3 2 2 4 11 11 10 9 8 7
15 16 15 13 15 15 12 11 8 7 6 5 4 4 6 6 5 4 3 3 3 3 3 3 2 3 2 1 2 2 2 1 2 2 1 1 2 1 8 11 10 10 9
15 15 16 15 15 15 13 10 8 5 3 3 2 2 2 3 4 3 3 3 4 3 3 3 3 2 3 2 1 1 1 2 1 1 1 2 2 1 1 7 8 9 9
14 14 14 15 14 13 11 9 6 5 3 2 3 3 3 2 3 4 4 5 4 4 4 4 5 4 2 1 1 1 2 2 2 0 2 1 1 0 1 2 1 5 6
14 15 15 15 14 12 9 9 7 5 5 5 5 5 4 2 3 3 4 5 4 4 5 5 4 3 2 0 2 3 2 2 2 2 3 2 1 1 2 2 4 4 2
15 15 14 14 14 13 9 7 5 7 6 5 4 5 4 3 3 3 5 5 4 4 5 4 3 2 2 0 2 4 4 5 5 4 3 4 3 3 4 4 4 5 6
14 14 12 13 12 12 11 9 9 6 5 4 4 4 4 4 3 4 4 5 4 4 4 3 3 2 2 2 1 3 5 5 2 5 5 5 5 5 6 6 8 7 8
9 10 11 11 11 11 12 11 11 8 6 5 5 5 6 6 6 5 5 6 5 4 5 4 3 2 2 3 3 1 3 5 6 4 5 6 7 7 8 7 9 9 9
4 6 8 10 10 11 11 12 11 8 7 6 7 8 8 7 8 7 6 6 6 5 5 5 4 3 1 0 1 1 1 2 5 6 7 5 6 7 7 7 8 9 9
8 8 9 11 11 11 11 10 10 11 11 10 10 9 8 7 7 8 7 6 6 6 6 5 5 4 3 3 2 2 3 4 5 6 8 9 9 8 8 7 8 9 8
Wind_Direction
162 149 148 163 161 152 140 138 142 145 147 148 148 147 146 142 137 132 126 121 118 116 114 112 110 108 106 106 107 109 110 111 113 115 117 118 119 120 119 125 148 112 111
154 147 149 159 157 150 141 134 137 141 144 146 148 148 147 144 139 133 128 124 122 121 118 116 113 110 109 109 110 113 116 119 122 125 134 132 125 126 128 129 63 105 129
150 146 154 157 155 152 144 136 133 136 141 144 146 146 145 143 139 135 132 129 127 125 122 119 115 112 111 112 114 118 122 129 137 157 201 159 125 132 137 129 109 123 135
151 151 159 153 157 154 149 143 138 139 141 142 144 145 144 143 140 138 138 135 131 128 126 121 116 113 112 113 113 115 123 140 164 205 215 119 124 128 147 143 141 143 142
153 155 146 155 158 156 154 151 147 145 145 144 145 146 145 145 144 144 145 142 137 133 129 123 117 115 114 110 104 99 104 167 207 237 174 111 108 128 153 155 158 158 156
157 156 147 160 160 159 158 157 154 151 150 150 150 150 148 148 147 148 149 146 143 141 135 127 120 117 115 108 93 74 49 249 236 208 123 141 124 135 160 167 170 170 170
160 158 151 161 160 161 162 161 158 156 156 155 153 152 150 148 148 151 153 153 155 154 146 133 124 118 111 99 75 48 9 288 262 147 142 154 105 131 162 173 177 179 181
160 160 149 160 164 166 167 167 164 163 161 159 156 153 150 149 151 156 160 164 167 166 157 142 132 124 113 94 56 21 345 292 241 135 163 122 100 134 159 170 179 186 190
165 163 158 167 170 172 172 170 169 167 166 163 159 157 158 160 163 168 170 173 173 169 156 143 133 123 112 97 61 13 332 300 267 152 154 97 103 126 145 143 161 181 192
170 168 166 173 174 177 178 176 175 172 171 169 168 169 169 171 177 179 187 169 171 163 150 136 125 117 115 110 80 350 282 264 247 167 153 99 100 114 116 114 124 146 171
176 174 174 177 179 184 183 171 179 179 177 177 178 176 183 192 185 184 184 146 167 163 150 132 121 129 171 164 155 223 244 245 160 133 78 82 99 122 121 117 115 125 144
181 183 180 184 181 188 184 170 187 189 180 197 187 181 199 197 193 191 124 149 168 165 160 143 150 197 226 185 163 207 210 215 147 132 85 79 99 134 136 139 149 157 166
183 187 186 186 187 189 183 181 189 193 180 199 194 190 201 190 192 196 169 169 183 190 196 165 200 209 205 120 242 161 53 264 77 100 83 79 99 134 149 153 161 174 188
188 188 191 185 187 196 192 187 191 197 184 195 186 199 193 200 205 196 200 183 185 195 192 208 203 162 181 183 193 152 147 309 48 57 77 71 79 93 120 150 175 195 207
193 190 191 191 186 192 198 201 198 203 195 194 189 197 206 203 207 198 197 197 215 189 185 202 200 159 182 177 172 132 74 55 33 14 100 76 68 65 62 54 45 338 243
195 193 191 192 188 190 195 204 203 207 202 207 195 197 203 214 204 202 193 190 207 202 198 191 168 171 188 146 134 94 341 56 57 343 51 101 77 63 57 52 46 34 1
195 193 194 192 192 192 197 202 205 211 205 211 200 200 202 215 197 201 200 187 185 167 156 176 153 161 153 145 112 79 48 13 41 19 350 337 109 83 63 56 52 49 41
196 192 194 194 193 193 199 200 206 210 207 209 206 198 202 215 199 197 182 166 144 149 154 145 159 148 122 113 84 38 23 22 22 352 316 337 349 89 88 65 57 53 47
200 193 193 198 194 192 193 194 204 194 199 205 197 196 187 194 182 169 146 124 130 127 124 120 98 98 101 80 93 52 341 328 311 353 14 39 62 347 67 101 84 63 50
200 197 197 195 195 190 187 186 184 171 147 99 71 58 66 93 127 133 124 122 122 119 112 104 103 86 84 73 323 8 318 307 282 276 242 154 146 297 351 3 232 109 87
200 198 198 198 189 186 183 179 174 155 110 83 69 66 71 87 110 124 126 129 133 128 122 118 112 117 113 116 239 231 216 239 260 235 251 256 180 257 276 298 299 320 266
205 201 197 196 189 185 175 162 141 118 102 96 95 86 86 103 122 132 145 139 135 127 127 131 139 168 114 38 285 275 250 209 206 218 225 230 256 267 276 277 301 283 292
206 202 199 192 182 178 155 130 119 111 110 114 106 104 101 102 108 119 129 123 124 121 119 120 135 147 148 135 324 288 284 287 217 188 221 241 248 276 284 289 276 281 281
206 193 188 178 170 159 145 144 147 147 143 149 147 138 129 121 108 101 106 107 107 107 111 114 97 122 161 158 139 8 331 339 303 279 210 221 236 257 272 283 287 284 277
130 148 151 144 137 135 137 143 142 140 134 132 133 130 118 105 96 93 93 98 99 98 97 95 99 94 122 93 140 186 222 239 261 282 293 288 266 261 266 270 279 284 285
81 98 111 116 114 118 125 130 134 134 134 139 136 128 114 104 98 100 102 103 104 106 106 105 108 97 67 51 358 318 296 297 297 298 292 288 287 286 287 286 281 279 283